STARLINK-34103, 63962

Orbit data source: Space-Track

STARLINK-34103, 63962 is a payload satellite owned by SpaceX/Seattle (US) in LEO that was launched on Tue, 13 May 2025 UTC via an FALCON 9 launch vehicle from the Air Force Eastern Test Range (AFETR). Payload-class satellites include a variety of spacecraft equipped with specific instruments for various scientific and technological missions. These include communications satellites like Starlink; space stations such as the ISS; scientific satellites like the Hubble; Earth observation satellites from companies like Planet Labs, Umbra, and HawkEye 360; GPS; miniature CubeSats for education and research; and military/defense satellites.

Loading next visibility...
Identifier
63962, 2025-099L
Orbit
LEO
Country
Flag of USUS
Related business
Manufacturer
SpaceX/Seattle
Mission
Operational Commercial Communications
Bus & Motor
STARLINK V2MO, Unknown motor
Mass
575 kg wet, ~530 kg dry
Launch date (UTC)
2025-05-13 (11 months ago)
Launch vehicle
FALCON 9
Launch site
Air Force Eastern Test Range (AFETR)
Object type
Payload
Rocket body
Debris
Shape & HBR
Box + 2 Pan, 17.7 m
Radar Cross Section
36.964 m², Large (>1 m²)

Expand to show TLE details & history
Last TLE update: 15 hours ago

TLE from 15 hours ago
0 STARLINK-34103
1 63962U 25099L   26093.84346801  .00040421  00000-0  14704-2 0  9994
2 63962  42.9986  34.1305 0000298 325.6877  34.3955 15.27579225 51188
Epoch: 2026-04-03T20:14Z
TLE epoch observation values (Epoch: 2026-04-03T20:14:35.636Z)
Latitude
-0.00002°
Longitude
-101.68979°
Altitude
482.658 km
Speed
7.626 km/s
True Right ascension
02h 16m 31s
True Declination
0° 00' 00"
Sunlit
Object was in daylight at epoch
Visualization orbit readout
Latitude
Unknown
Longitude
Unknown
Altitude
Unknown
Speed
Unknown
Apparent Right ascension
Unknown
Apparent Declination
Unknown
Sunlit
N/A
Visualization observer readout
Local Sidereal Time
17:30:39
Azimuth
Unknown
Elevation
Unknown
Doppler factor
Unknown
Orbital elements
Apogee altitude
485.201 km
Perigee altitude
484.792 km
Semi-major axis
6,863.134 km
Eccentricity
0.00003
Inclination
42.9986°
RAAN
34.1305°
Arg. of periapsis
325.6877°
True anomaly
34.39743°
Mean anomaly
34.3955°
Eccentric anomaly
34.39646°
Mean motion
3.81733 °/min
Orbital period
94.31 mins
BSTAR
0.0014704
Loading maneuver chart data...
Computing Atmospheric mass density...
Loading historical data...
Loading historical data...
Loading historical data...
Loading historical data...
Loading historical data...
Loading historical data...
Loading historical data...

Documentation

Showing up to 5 results
|